Year,Month,Day,Hour,Minute,Value (Times are PST for temperature in C)
2016,03,31,00,00,7.80
2016,03,31,00,01,7.80
2016,03,31,00,02,7.80
2016,03,31,00,03,7.80
2016,03,31,00,04,7.80
2016,03,31,00,05,7.80
2016,03,31,00,06,7.80
2016,03,31,00,07,7.70
2016,03,31,00,08,7.70
2016,03,31,00,09,7.70
2016,03,31,00,10,7.70
2016,03,31,00,11,7.70
2016,03,31,00,12,7.60
2016,03,31,00,13,7.60
2016,03,31,00,14,7.60
2016,03,31,00,15,7.60
2016,03,31,00,16,7.60
2016,03,31,00,17,7.50
2016,03,31,00,18,7.50
2016,03,31,00,19,7.50
2016,03,31,00,20,7.40
2016,03,31,00,21,7.40
2016,03,31,00,22,7.40
2016,03,31,00,23,7.40
2016,03,31,00,24,7.40
2016,03,31,00,25,7.40
2016,03,31,00,26,7.40
2016,03,31,00,27,7.30
2016,03,31,00,28,7.30
2016,03,31,00,29,7.30
2016,03,31,00,30,7.30
2016,03,31,00,31,7.30
2016,03,31,00,32,7.30
2016,03,31,00,33,7.30
2016,03,31,00,34,7.30
2016,03,31,00,35,7.30
2016,03,31,00,36,7.30
2016,03,31,00,37,7.20
2016,03,31,00,38,7.20
2016,03,31,00,39,7.20
2016,03,31,00,40,7.20
2016,03,31,00,41,7.20
2016,03,31,00,42,7.10
2016,03,31,00,43,7.10
2016,03,31,00,44,7.10
2016,03,31,00,45,7.10
2016,03,31,00,46,7.10
2016,03,31,00,47,7.10
2016,03,31,00,48,7.10
2016,03,31,00,49,7.00
2016,03,31,00,50,7.00
2016,03,31,00,51,7.00
2016,03,31,00,52,6.90
2016,03,31,00,53,6.90
2016,03,31,00,54,6.90
2016,03,31,00,55,6.90
2016,03,31,00,56,6.90
2016,03,31,00,57,6.90
2016,03,31,00,58,6.90
2016,03,31,00,59,6.90
2016,03,31,01,00,6.90
2016,03,31,01,01,6.90
2016,03,31,01,02,6.90
2016,03,31,01,03,6.90
2016,03,31,01,04,6.90
2016,03,31,01,05,6.90
2016,03,31,01,06,6.80
2016,03,31,01,07,6.80
2016,03,31,01,08,6.80
2016,03,31,01,09,6.80
2016,03,31,01,10,6.80
2016,03,31,01,11,6.80
2016,03,31,01,12,6.80
2016,03,31,01,13,6.80
2016,03,31,01,14,6.80
2016,03,31,01,15,6.80
2016,03,31,01,16,6.80
2016,03,31,01,17,6.80
2016,03,31,01,18,6.70
2016,03,31,01,19,6.70
2016,03,31,01,20,6.60
2016,03,31,01,21,6.60
2016,03,31,01,22,6.60
2016,03,31,01,23,6.60
2016,03,31,01,24,6.50
2016,03,31,01,25,6.60
2016,03,31,01,26,6.60
2016,03,31,01,27,6.60
2016,03,31,01,28,6.60
2016,03,31,01,29,6.60
2016,03,31,01,30,6.60
2016,03,31,01,31,6.60
2016,03,31,01,32,6.60
2016,03,31,01,33,6.60
2016,03,31,01,34,6.60
2016,03,31,01,35,6.60
2016,03,31,01,36,6.60
2016,03,31,01,37,6.60
2016,03,31,01,38,6.60
2016,03,31,01,39,6.60
2016,03,31,01,40,6.60
2016,03,31,01,41,6.60
2016,03,31,01,42,6.60
2016,03,31,01,43,6.60
2016,03,31,01,44,6.50
2016,03,31,01,45,6.50
2016,03,31,01,46,6.50
2016,03,31,01,47,6.40
2016,03,31,01,48,6.40
2016,03,31,01,49,6.40
2016,03,31,01,50,6.40
2016,03,31,01,51,6.30
2016,03,31,01,52,6.30
2016,03,31,01,53,6.30
2016,03,31,01,54,6.20
2016,03,31,01,55,6.20
2016,03,31,01,56,6.20
2016,03,31,01,57,6.10
2016,03,31,01,58,6.10
2016,03,31,01,59,6.00
2016,03,31,02,00,5.90
2016,03,31,02,01,5.90
2016,03,31,02,02,5.80
2016,03,31,02,03,5.80
2016,03,31,02,04,5.80
2016,03,31,02,05,5.90
2016,03,31,02,06,5.90
2016,03,31,02,07,5.90
2016,03,31,02,08,5.80
2016,03,31,02,09,5.80
2016,03,31,02,10,5.80
2016,03,31,02,11,5.80
2016,03,31,02,12,5.80
2016,03,31,02,13,5.80
2016,03,31,02,14,5.70
2016,03,31,02,15,5.70
2016,03,31,02,16,5.70
2016,03,31,02,17,5.80
2016,03,31,02,18,5.70
2016,03,31,02,19,5.70
2016,03,31,02,20,5.70
2016,03,31,02,21,5.70
2016,03,31,02,22,5.70
2016,03,31,02,23,5.70
2016,03,31,02,24,5.70
2016,03,31,02,25,5.70
2016,03,31,02,26,5.60
2016,03,31,02,27,5.60
2016,03,31,02,28,5.60
2016,03,31,02,29,5.60
2016,03,31,02,30,5.60
2016,03,31,02,31,5.70
2016,03,31,02,32,5.70
2016,03,31,02,33,5.70
2016,03,31,02,34,5.70
2016,03,31,02,35,5.70
2016,03,31,02,36,5.70
2016,03,31,02,37,5.70
2016,03,31,02,38,5.70
2016,03,31,02,39,5.80
2016,03,31,02,40,5.80
2016,03,31,02,41,5.80
2016,03,31,02,42,5.90
2016,03,31,02,43,5.90
2016,03,31,02,44,5.90
2016,03,31,02,45,5.90
2016,03,31,02,46,5.90
2016,03,31,02,47,5.90
2016,03,31,02,48,5.90
2016,03,31,02,49,5.90
2016,03,31,02,50,5.80
2016,03,31,02,51,5.80
2016,03,31,02,52,5.80
2016,03,31,02,53,5.80
2016,03,31,02,54,5.80
2016,03,31,02,55,5.80
2016,03,31,02,56,5.70
2016,03,31,02,57,5.80
2016,03,31,02,58,5.80
2016,03,31,02,59,5.80
2016,03,31,03,00,5.80
2016,03,31,03,01,5.80
2016,03,31,03,02,5.80
2016,03,31,03,03,5.80
2016,03,31,03,04,5.80
2016,03,31,03,05,5.80
2016,03,31,03,06,5.80
2016,03,31,03,07,5.80
2016,03,31,03,08,5.70
2016,03,31,03,09,5.70
2016,03,31,03,10,5.70
2016,03,31,03,11,5.70
2016,03,31,03,12,5.70
2016,03,31,03,13,5.70
2016,03,31,03,14,5.60
2016,03,31,03,15,5.60
2016,03,31,03,16,5.60
2016,03,31,03,17,5.60
2016,03,31,03,18,5.60
2016,03,31,03,19,5.60
2016,03,31,03,20,5.60
2016,03,31,03,21,5.70
2016,03,31,03,22,5.70
2016,03,31,03,23,5.70
2016,03,31,03,24,5.70
2016,03,31,03,25,5.60
2016,03,31,03,26,5.60
2016,03,31,03,27,5.60
2016,03,31,03,28,5.50
2016,03,31,03,29,5.50
2016,03,31,03,30,5.40
2016,03,31,03,31,5.40
2016,03,31,03,32,5.30
2016,03,31,03,33,5.30
2016,03,31,03,34,5.30
2016,03,31,03,35,5.30
2016,03,31,03,36,5.30
2016,03,31,03,37,5.30
2016,03,31,03,38,5.30
2016,03,31,03,39,5.20
2016,03,31,03,40,5.20
2016,03,31,03,41,5.20
2016,03,31,03,42,5.20
2016,03,31,03,43,5.20
2016,03,31,03,44,5.20
2016,03,31,03,45,5.20
2016,03,31,03,46,5.10
2016,03,31,03,47,5.10
2016,03,31,03,48,5.10
2016,03,31,03,49,5.10
2016,03,31,03,50,5.10
2016,03,31,03,51,5.20
2016,03,31,03,52,5.20
2016,03,31,03,53,5.20
2016,03,31,03,54,5.20
2016,03,31,03,55,5.20
2016,03,31,03,56,5.20
2016,03,31,03,57,5.20
2016,03,31,03,58,5.10
2016,03,31,03,59,5.10
2016,03,31,04,00,5.10
2016,03,31,04,01,5.00
2016,03,31,04,02,5.00
2016,03,31,04,03,5.00
2016,03,31,04,04,5.00
2016,03,31,04,05,5.00
2016,03,31,04,06,5.00
2016,03,31,04,07,5.00
2016,03,31,04,08,5.00
2016,03,31,04,09,5.00
2016,03,31,04,10,5.00
2016,03,31,04,11,5.00
2016,03,31,04,12,5.00
2016,03,31,04,13,4.90
2016,03,31,04,14,4.90
2016,03,31,04,15,4.80
2016,03,31,04,16,4.80
2016,03,31,04,17,4.70
2016,03,31,04,18,4.80
2016,03,31,04,19,4.80
2016,03,31,04,20,4.90
2016,03,31,04,21,5.00
2016,03,31,04,22,5.00
2016,03,31,04,23,5.10
2016,03,31,04,24,5.20
2016,03,31,04,25,5.20
2016,03,31,04,26,5.30
2016,03,31,04,27,5.30
2016,03,31,04,28,5.30
2016,03,31,04,29,5.30
2016,03,31,04,30,5.30
2016,03,31,04,31,5.30
2016,03,31,04,32,5.30
2016,03,31,04,33,5.30
2016,03,31,04,34,5.40
2016,03,31,04,35,5.40
2016,03,31,04,36,5.30
2016,03,31,04,37,5.30
2016,03,31,04,38,5.30
2016,03,31,04,39,5.30
2016,03,31,04,40,5.30
2016,03,31,04,41,5.30
2016,03,31,04,42,5.20
2016,03,31,04,43,5.20
2016,03,31,04,44,5.20
2016,03,31,04,45,5.20
2016,03,31,04,46,5.20
2016,03,31,04,47,5.20
2016,03,31,04,48,5.10
2016,03,31,04,49,5.10
2016,03,31,04,50,5.10
2016,03,31,04,51,5.10
2016,03,31,04,52,5.10
2016,03,31,04,53,5.10
2016,03,31,04,54,5.10
2016,03,31,04,55,5.10
2016,03,31,04,56,5.10
2016,03,31,04,57,5.10
2016,03,31,04,58,5.10
2016,03,31,04,59,5.10
2016,03,31,05,00,5.10
2016,03,31,05,01,5.10
2016,03,31,05,02,5.10
2016,03,31,05,03,5.10
2016,03,31,05,04,5.10
2016,03,31,05,05,5.00
2016,03,31,05,06,5.00
2016,03,31,05,07,4.90
2016,03,31,05,08,4.90
2016,03,31,05,09,4.90
2016,03,31,05,10,4.90
2016,03,31,05,11,4.90
2016,03,31,05,12,4.90
2016,03,31,05,13,4.90
2016,03,31,05,14,4.90
2016,03,31,05,15,4.90
2016,03,31,05,16,4.90
2016,03,31,05,17,4.90
2016,03,31,05,18,4.90
2016,03,31,05,19,4.90
2016,03,31,05,20,4.90
2016,03,31,05,21,4.90
2016,03,31,05,22,4.90
2016,03,31,05,23,4.90
2016,03,31,05,24,4.90
2016,03,31,05,25,4.90
2016,03,31,05,26,4.90
2016,03,31,05,27,4.90
2016,03,31,05,28,4.80
2016,03,31,05,29,4.80
2016,03,31,05,30,4.70
2016,03,31,05,31,4.70
2016,03,31,05,32,4.70
2016,03,31,05,33,4.60
2016,03,31,05,34,4.60
2016,03,31,05,35,4.60
2016,03,31,05,36,4.60
2016,03,31,05,37,4.60
2016,03,31,05,38,4.60
2016,03,31,05,39,4.60
2016,03,31,05,40,4.60
2016,03,31,05,41,4.60
2016,03,31,05,42,4.60
2016,03,31,05,43,4.70
2016,03,31,05,44,4.70
2016,03,31,05,45,4.70
2016,03,31,05,46,4.70
2016,03,31,05,47,4.70
2016,03,31,05,48,4.80
2016,03,31,05,49,4.80
2016,03,31,05,50,4.80
2016,03,31,05,51,4.80
2016,03,31,05,52,4.80
2016,03,31,05,53,4.80
2016,03,31,05,54,4.80
2016,03,31,05,55,4.90
2016,03,31,05,56,4.90
2016,03,31,05,57,4.90
2016,03,31,05,58,5.00
2016,03,31,05,59,5.00
2016,03,31,06,00,5.00
2016,03,31,06,01,5.00
2016,03,31,06,02,5.00
2016,03,31,06,03,5.00
2016,03,31,06,04,5.00
2016,03,31,06,05,4.90
2016,03,31,06,06,5.00
2016,03,31,06,07,4.90
2016,03,31,06,08,4.90
2016,03,31,06,09,4.90
2016,03,31,06,10,4.90
2016,03,31,06,11,4.80
2016,03,31,06,12,4.80
2016,03,31,06,13,4.70
2016,03,31,06,14,4.70
2016,03,31,06,15,4.60
2016,03,31,06,16,4.50
2016,03,31,06,17,4.50
2016,03,31,06,18,4.40
2016,03,31,06,19,4.40
2016,03,31,06,20,4.40
2016,03,31,06,21,4.40
2016,03,31,06,22,4.30
2016,03,31,06,23,4.30
2016,03,31,06,24,4.40
2016,03,31,06,25,4.40
2016,03,31,06,26,4.40
2016,03,31,06,27,4.40
2016,03,31,06,28,4.40
2016,03,31,06,29,4.40
2016,03,31,06,30,4.40
2016,03,31,06,31,4.40
2016,03,31,06,32,4.40
2016,03,31,06,33,4.40
2016,03,31,06,34,4.40
2016,03,31,06,35,4.50
2016,03,31,06,36,4.50
2016,03,31,06,37,4.60
2016,03,31,06,38,4.60
2016,03,31,06,39,4.60
2016,03,31,06,40,4.60
2016,03,31,06,41,4.60
2016,03,31,06,42,4.60
2016,03,31,06,43,4.50
2016,03,31,06,44,4.50
2016,03,31,06,45,4.50
2016,03,31,06,46,4.50
2016,03,31,06,47,4.60
2016,03,31,06,48,4.60
2016,03,31,06,49,4.60
2016,03,31,06,50,4.60
2016,03,31,06,51,4.60
2016,03,31,06,52,4.60
2016,03,31,06,53,4.60
2016,03,31,06,54,4.50
2016,03,31,06,55,4.50
2016,03,31,06,56,4.40
2016,03,31,06,57,4.40
2016,03,31,06,58,4.50
2016,03,31,06,59,4.50
2016,03,31,07,00,4.60
2016,03,31,07,01,4.60
2016,03,31,07,02,4.60
2016,03,31,07,03,4.60
2016,03,31,07,04,4.60
2016,03,31,07,05,4.60
2016,03,31,07,06,4.60
2016,03,31,07,07,4.60
2016,03,31,07,08,4.50
2016,03,31,07,09,4.40
2016,03,31,07,10,4.40
2016,03,31,07,11,4.40
2016,03,31,07,12,4.30
2016,03,31,07,13,4.30
2016,03,31,07,14,4.20
2016,03,31,07,15,4.20
2016,03,31,07,16,4.10
2016,03,31,07,17,4.10
2016,03,31,07,18,4.10
2016,03,31,07,19,4.10
2016,03,31,07,20,4.10
2016,03,31,07,21,4.20
2016,03,31,07,22,4.20
2016,03,31,07,23,4.20
2016,03,31,07,24,4.30
2016,03,31,07,25,4.30
2016,03,31,07,26,4.40
2016,03,31,07,27,4.40
2016,03,31,07,28,4.50
2016,03,31,07,29,4.50
2016,03,31,07,30,4.50
2016,03,31,07,31,4.50
2016,03,31,07,32,4.50
2016,03,31,07,33,4.50
2016,03,31,07,34,4.50
2016,03,31,07,35,4.50
2016,03,31,07,36,4.60
2016,03,31,07,37,4.60
2016,03,31,07,38,4.60
2016,03,31,07,39,4.60
2016,03,31,07,40,4.60
2016,03,31,07,41,4.60
2016,03,31,07,42,4.60
2016,03,31,07,43,4.60
2016,03,31,07,44,4.70
2016,03,31,07,45,4.70
2016,03,31,07,46,4.80
2016,03,31,07,47,4.90
2016,03,31,07,48,4.90
2016,03,31,07,49,5.00
2016,03,31,07,50,5.00
2016,03,31,07,51,5.10
2016,03,31,07,52,5.20
2016,03,31,07,53,5.20
2016,03,31,07,54,5.20
2016,03,31,07,55,5.20
2016,03,31,07,56,5.10
2016,03,31,07,57,5.10
2016,03,31,07,58,5.10
2016,03,31,07,59,5.10
2016,03,31,08,00,5.10
2016,03,31,08,01,5.10
2016,03,31,08,02,5.10
2016,03,31,08,03,5.20
2016,03,31,08,04,5.20
2016,03,31,08,05,5.30
2016,03,31,08,06,5.30
2016,03,31,08,07,5.30
2016,03,31,08,08,5.30
2016,03,31,08,09,5.40
2016,03,31,08,10,5.40
2016,03,31,08,11,5.40
2016,03,31,08,12,5.50
2016,03,31,08,13,5.50
2016,03,31,08,14,5.60
2016,03,31,08,15,5.60
2016,03,31,08,16,5.70
2016,03,31,08,17,5.70
2016,03,31,08,18,5.70
2016,03,31,08,19,5.70
2016,03,31,08,20,5.80
2016,03,31,08,21,5.80
2016,03,31,08,22,5.90
2016,03,31,08,23,5.90
2016,03,31,08,24,5.90
2016,03,31,08,25,5.90
2016,03,31,08,26,6.00
2016,03,31,08,27,6.00
2016,03,31,08,28,6.10
2016,03,31,08,29,6.10
2016,03,31,08,30,6.20
2016,03,31,08,31,6.30
2016,03,31,08,32,6.30
2016,03,31,08,33,6.40
2016,03,31,08,34,6.40
2016,03,31,08,35,6.50
2016,03,31,08,36,6.60
2016,03,31,08,37,6.60
2016,03,31,08,38,6.70
2016,03,31,08,39,6.80
2016,03,31,08,40,6.80
2016,03,31,08,41,6.90
2016,03,31,08,42,7.00
2016,03,31,08,43,7.00
2016,03,31,08,44,7.10
2016,03,31,08,45,7.20
2016,03,31,08,46,7.20
2016,03,31,08,47,7.20
2016,03,31,08,48,7.30
2016,03,31,08,49,7.30
2016,03,31,08,50,7.30
2016,03,31,08,51,7.40
2016,03,31,08,52,7.40
2016,03,31,08,53,7.50
2016,03,31,08,54,7.60
2016,03,31,08,55,7.70
2016,03,31,08,56,7.70
2016,03,31,08,57,7.80
2016,03,31,08,58,7.90
2016,03,31,08,59,7.90
2016,03,31,09,00,8.00
2016,03,31,09,01,8.10
2016,03,31,09,02,8.10
2016,03,31,09,03,8.20
2016,03,31,09,04,8.20
2016,03,31,09,05,8.30
2016,03,31,09,06,8.30
2016,03,31,09,07,8.40
2016,03,31,09,08,8.50
2016,03,31,09,09,8.50
2016,03,31,09,10,8.60
2016,03,31,09,11,8.70
2016,03,31,09,12,8.80
2016,03,31,09,13,8.90
2016,03,31,09,14,9.00
2016,03,31,09,15,9.20
2016,03,31,09,16,9.30
2016,03,31,09,17,9.40
2016,03,31,09,18,9.50
2016,03,31,09,19,9.60
2016,03,31,09,20,9.80
2016,03,31,09,21,9.90
2016,03,31,09,22,10.00
2016,03,31,09,23,10.20
2016,03,31,09,24,10.30
2016,03,31,09,25,10.40
2016,03,31,09,26,10.50
2016,03,31,09,27,10.60
2016,03,31,09,28,10.70
2016,03,31,09,29,10.80
2016,03,31,09,30,10.90
2016,03,31,09,31,11.00
2016,03,31,09,32,11.10
2016,03,31,09,33,11.20
2016,03,31,09,34,11.30
2016,03,31,09,35,11.40
2016,03,31,09,36,11.50
2016,03,31,09,37,11.60
2016,03,31,09,38,11.70
2016,03,31,09,39,11.80
2016,03,31,09,40,11.90
2016,03,31,09,41,12.00
2016,03,31,09,42,12.10
2016,03,31,09,43,12.20
2016,03,31,09,44,12.20
2016,03,31,09,45,12.30
2016,03,31,09,46,12.30
2016,03,31,09,47,12.40
2016,03,31,09,48,12.50
2016,03,31,09,49,12.60
2016,03,31,09,50,12.60
2016,03,31,09,51,12.70
2016,03,31,09,52,12.80
2016,03,31,09,53,12.80
2016,03,31,09,54,12.80
2016,03,31,09,55,12.90
2016,03,31,09,56,12.90
2016,03,31,09,57,13.00
2016,03,31,09,58,13.10
2016,03,31,09,59,13.10
2016,03,31,10,00,13.20
2016,03,31,10,01,13.20
2016,03,31,10,02,13.20
2016,03,31,10,03,13.20
2016,03,31,10,04,13.20
2016,03,31,10,05,13.20
2016,03,31,10,06,13.10
2016,03,31,10,07,13.10
2016,03,31,10,08,13.10
2016,03,31,10,09,13.00
2016,03,31,10,10,13.00
2016,03,31,10,11,12.90
2016,03,31,10,12,12.90
2016,03,31,10,13,12.80
2016,03,31,10,14,12.70
2016,03,31,10,15,12.70
2016,03,31,10,16,12.70
2016,03,31,10,17,12.70
2016,03,31,10,18,12.80
2016,03,31,10,19,12.80
2016,03,31,10,20,12.90
2016,03,31,10,21,13.00
2016,03,31,10,22,13.00
2016,03,31,10,23,13.10
2016,03,31,10,24,13.10
2016,03,31,10,25,13.20
2016,03,31,10,26,13.20
2016,03,31,10,27,13.20
2016,03,31,10,28,13.20
2016,03,31,10,29,13.10
2016,03,31,10,30,13.10
2016,03,31,10,31,13.10
2016,03,31,10,32,13.00
2016,03,31,10,33,13.00
2016,03,31,10,34,12.90
2016,03,31,10,35,12.90
2016,03,31,10,36,12.80
2016,03,31,10,37,12.80
2016,03,31,10,38,12.70
2016,03,31,10,39,12.70
2016,03,31,10,40,12.70
2016,03,31,10,41,12.70
2016,03,31,10,42,12.70
2016,03,31,10,43,12.80
2016,03,31,10,44,12.80
2016,03,31,10,45,12.80
2016,03,31,10,46,12.90
2016,03,31,10,47,12.90
2016,03,31,10,48,12.90
2016,03,31,10,49,12.90
2016,03,31,10,50,13.00
2016,03,31,10,51,13.00
2016,03,31,10,52,13.10
2016,03,31,10,53,13.20
2016,03,31,10,54,13.20
2016,03,31,10,55,13.30
2016,03,31,10,56,13.40
2016,03,31,10,57,13.50
2016,03,31,10,58,13.50
2016,03,31,10,59,13.60
2016,03,31,11,00,13.70
2016,03,31,11,01,13.70
2016,03,31,11,02,13.80
2016,03,31,11,03,13.80
2016,03,31,11,04,13.80
2016,03,31,11,05,13.80
2016,03,31,11,06,13.80
2016,03,31,11,07,13.80
2016,03,31,11,08,13.80
2016,03,31,11,09,13.80
2016,03,31,11,10,13.80
2016,03,31,11,11,13.90
2016,03,31,11,12,14.00
2016,03,31,11,13,14.00
2016,03,31,11,14,14.10
2016,03,31,11,15,14.10
2016,03,31,11,16,14.10
2016,03,31,11,17,14.10
2016,03,31,11,18,14.10
2016,03,31,11,19,14.20
2016,03,31,11,20,14.20
2016,03,31,11,21,14.20
2016,03,31,11,22,14.30
2016,03,31,11,23,14.30
2016,03,31,11,24,14.30
2016,03,31,11,25,14.30
2016,03,31,11,26,14.30
2016,03,31,11,27,14.40
2016,03,31,11,28,14.40
2016,03,31,11,29,14.50
2016,03,31,11,30,14.60
2016,03,31,11,31,14.60
2016,03,31,11,32,14.60
2016,03,31,11,33,14.60
2016,03,31,11,34,14.60
2016,03,31,11,35,14.60
2016,03,31,11,36,14.60
2016,03,31,11,37,14.60
2016,03,31,11,38,14.60
2016,03,31,11,39,14.60
2016,03,31,11,40,14.60
2016,03,31,11,41,14.60
2016,03,31,11,42,14.60
2016,03,31,11,43,14.60
2016,03,31,11,44,14.60
2016,03,31,11,45,14.60
2016,03,31,11,46,14.70
2016,03,31,11,47,14.70
2016,03,31,11,48,14.70
2016,03,31,11,49,14.70
2016,03,31,11,50,14.70
2016,03,31,11,51,14.70
2016,03,31,11,52,14.70
2016,03,31,11,53,14.70
2016,03,31,11,54,14.70
2016,03,31,11,55,14.70
2016,03,31,11,56,14.70
2016,03,31,11,57,14.80
2016,03,31,11,58,14.80
2016,03,31,11,59,14.80
2016,03,31,12,00,14.80
2016,03,31,12,01,14.80
2016,03,31,12,02,14.90
2016,03,31,12,03,14.90
2016,03,31,12,04,14.90
2016,03,31,12,05,15.00
2016,03,31,12,06,15.10
2016,03,31,12,07,15.10
2016,03,31,12,08,15.10
2016,03,31,12,09,15.00
2016,03,31,12,10,14.90
2016,03,31,12,11,14.90
2016,03,31,12,12,14.90
2016,03,31,12,13,14.80
2016,03,31,12,14,14.80
2016,03,31,12,15,14.80
2016,03,31,12,16,14.80
2016,03,31,12,17,14.70
2016,03,31,12,18,14.70
2016,03,31,12,19,14.70
2016,03,31,12,20,14.60
2016,03,31,12,21,14.50
2016,03,31,12,22,14.50
2016,03,31,12,23,14.40
2016,03,31,12,24,14.50
2016,03,31,12,25,14.50
2016,03,31,12,26,14.50
2016,03,31,12,27,14.60
2016,03,31,12,28,14.60
2016,03,31,12,29,14.70
2016,03,31,12,30,14.70
2016,03,31,12,31,14.70
2016,03,31,12,32,14.70
2016,03,31,12,33,14.70
2016,03,31,12,34,14.80
2016,03,31,12,35,14.80
2016,03,31,12,36,14.70
2016,03,31,12,37,14.80
2016,03,31,12,38,14.80
2016,03,31,12,39,14.80
2016,03,31,12,40,14.90
2016,03,31,12,41,15.00
2016,03,31,12,42,15.00
2016,03,31,12,43,15.10
2016,03,31,12,44,15.10
2016,03,31,12,45,15.10
2016,03,31,12,46,15.20
2016,03,31,12,47,15.20
2016,03,31,12,48,15.30
2016,03,31,12,49,15.30
2016,03,31,12,50,15.40
2016,03,31,12,51,15.40
2016,03,31,12,52,15.50
2016,03,31,12,53,15.50
2016,03,31,12,54,15.60
2016,03,31,12,55,15.50
2016,03,31,12,56,15.40
2016,03,31,12,57,15.30
2016,03,31,12,58,15.20
2016,03,31,12,59,15.20
2016,03,31,13,00,15.10
2016,03,31,13,01,15.10
2016,03,31,13,02,15.00
2016,03,31,13,03,14.90
2016,03,31,13,04,14.90
2016,03,31,13,05,14.80
2016,03,31,13,06,14.80
2016,03,31,13,07,14.70
2016,03,31,13,08,14.60
2016,03,31,13,09,14.50
2016,03,31,13,10,14.50
2016,03,31,13,11,14.50
2016,03,31,13,12,14.60
2016,03,31,13,13,14.60
2016,03,31,13,14,14.60
2016,03,31,13,15,14.70
2016,03,31,13,16,14.80
2016,03,31,13,17,15.00
2016,03,31,13,18,15.10
2016,03,31,13,19,15.10
2016,03,31,13,20,15.20
2016,03,31,13,21,15.20
2016,03,31,13,22,15.20
2016,03,31,13,23,15.20
2016,03,31,13,24,15.20
2016,03,31,13,25,15.20
2016,03,31,13,26,15.20
2016,03,31,13,27,15.20
2016,03,31,13,28,15.20
2016,03,31,13,29,15.10
2016,03,31,13,30,15.10
2016,03,31,13,31,15.00
2016,03,31,13,32,15.00
2016,03,31,13,33,14.90
2016,03,31,13,34,14.90
2016,03,31,13,35,14.90
2016,03,31,13,36,14.90
2016,03,31,13,37,14.90
2016,03,31,13,38,14.90
2016,03,31,13,39,14.90
2016,03,31,13,40,14.90
2016,03,31,13,41,14.90
2016,03,31,13,42,14.90
2016,03,31,13,43,14.80
2016,03,31,13,44,14.70
2016,03,31,13,45,14.70
2016,03,31,13,46,14.60
2016,03,31,13,47,14.60
2016,03,31,13,48,14.60
2016,03,31,13,49,14.50
2016,03,31,13,50,14.50
2016,03,31,13,51,14.50
2016,03,31,13,52,14.60
2016,03,31,13,53,14.70
2016,03,31,13,54,14.70
2016,03,31,13,55,14.80
2016,03,31,13,56,14.90
2016,03,31,13,57,14.90
2016,03,31,13,58,15.00
2016,03,31,13,59,15.10
2016,03,31,14,00,15.10
2016,03,31,14,01,15.10
2016,03,31,14,02,15.10
2016,03,31,14,03,15.10
2016,03,31,14,04,15.20
2016,03,31,14,05,15.30
2016,03,31,14,06,15.30
2016,03,31,14,07,15.40
2016,03,31,14,08,15.50
2016,03,31,14,09,15.60
2016,03,31,14,10,15.70
2016,03,31,14,11,15.80
2016,03,31,14,12,15.80
2016,03,31,14,13,15.80
2016,03,31,14,14,15.80
2016,03,31,14,15,15.80
2016,03,31,14,16,15.90
2016,03,31,14,17,15.90
2016,03,31,14,18,15.90
2016,03,31,14,19,15.90
2016,03,31,14,20,15.80
2016,03,31,14,21,15.60
2016,03,31,14,22,15.40
2016,03,31,14,23,15.30
2016,03,31,14,24,15.10
2016,03,31,14,25,15.10
2016,03,31,14,26,15.10
2016,03,31,14,27,15.10
2016,03,31,14,28,15.10
2016,03,31,14,29,15.20
2016,03,31,14,30,15.20
2016,03,31,14,31,15.30
2016,03,31,14,32,15.30
2016,03,31,14,33,15.40
2016,03,31,14,34,15.50
2016,03,31,14,35,15.60
2016,03,31,14,36,15.70
2016,03,31,14,37,15.80
2016,03,31,14,38,15.80
2016,03,31,14,39,15.90
2016,03,31,14,40,16.00
2016,03,31,14,41,16.10
2016,03,31,14,42,16.20
2016,03,31,14,43,16.20
2016,03,31,14,44,16.20
2016,03,31,14,45,16.20
2016,03,31,14,46,16.20
2016,03,31,14,47,16.10
2016,03,31,14,48,16.00
2016,03,31,14,49,15.90
2016,03,31,14,50,15.90
2016,03,31,14,51,15.90
2016,03,31,14,52,15.90
2016,03,31,14,53,15.90
2016,03,31,14,54,15.90
2016,03,31,14,55,15.90
2016,03,31,14,56,15.90
2016,03,31,14,57,15.90
2016,03,31,14,58,16.00
2016,03,31,14,59,16.00
2016,03,31,15,00,16.10
2016,03,31,15,01,16.10
2016,03,31,15,02,16.00
2016,03,31,15,03,16.00
2016,03,31,15,04,15.90
2016,03,31,15,05,15.90
2016,03,31,15,06,15.90
2016,03,31,15,07,15.90
2016,03,31,15,08,15.90
2016,03,31,15,09,15.90
2016,03,31,15,10,16.00
2016,03,31,15,11,16.00
2016,03,31,15,12,16.00
2016,03,31,15,13,16.00
2016,03,31,15,14,15.90
2016,03,31,15,15,15.90
2016,03,31,15,16,15.80
2016,03,31,15,17,15.80
2016,03,31,15,18,15.70
2016,03,31,15,19,15.70
2016,03,31,15,20,15.70
2016,03,31,15,21,15.60
2016,03,31,15,22,15.60
2016,03,31,15,23,15.60
2016,03,31,15,24,15.60
2016,03,31,15,25,15.60
2016,03,31,15,26,15.50
2016,03,31,15,27,15.40
2016,03,31,15,28,15.40
2016,03,31,15,29,15.40
2016,03,31,15,30,15.40
2016,03,31,15,31,15.40
2016,03,31,15,32,15.50
2016,03,31,15,33,15.50
2016,03,31,15,34,15.60
2016,03,31,15,35,15.60
2016,03,31,15,36,15.80
2016,03,31,15,37,15.80
2016,03,31,15,38,15.90
2016,03,31,15,39,16.00
2016,03,31,15,40,16.10
2016,03,31,15,41,16.20
2016,03,31,15,42,16.30
2016,03,31,15,43,16.40
2016,03,31,15,44,16.50
2016,03,31,15,45,16.60
2016,03,31,15,46,16.60
2016,03,31,15,47,16.70
2016,03,31,15,48,16.80
2016,03,31,15,49,16.80
2016,03,31,15,50,16.90
2016,03,31,15,51,16.90
2016,03,31,15,52,16.90
2016,03,31,15,53,16.90
2016,03,31,15,54,16.80
2016,03,31,15,55,16.80
2016,03,31,15,56,16.70
2016,03,31,15,57,16.60
2016,03,31,15,58,16.50
2016,03,31,15,59,16.50
2016,03,31,16,00,16.50
2016,03,31,16,01,16.50
2016,03,31,16,02,16.60
2016,03,31,16,03,16.70
2016,03,31,16,04,16.80
2016,03,31,16,05,16.80
2016,03,31,16,06,16.90
2016,03,31,16,07,17.00
2016,03,31,16,08,17.10
2016,03,31,16,09,17.10
2016,03,31,16,10,17.20
2016,03,31,16,11,17.30
2016,03,31,16,12,17.30
2016,03,31,16,13,17.40
2016,03,31,16,14,17.50
2016,03,31,16,15,17.60
2016,03,31,16,16,17.60
2016,03,31,16,17,17.60
2016,03,31,16,18,17.70
2016,03,31,16,19,17.70
2016,03,31,16,20,17.70
2016,03,31,16,21,17.70
2016,03,31,16,22,17.70
2016,03,31,16,23,17.80
2016,03,31,16,24,17.80
2016,03,31,16,25,17.80
2016,03,31,16,26,17.80
2016,03,31,16,27,17.70
2016,03,31,16,28,17.70
2016,03,31,16,29,17.70
2016,03,31,16,30,17.70
2016,03,31,16,31,17.70
2016,03,31,16,32,17.70
2016,03,31,16,33,17.70
2016,03,31,16,34,17.80
2016,03,31,16,35,17.80
2016,03,31,16,36,17.80
2016,03,31,16,37,17.90
2016,03,31,16,38,17.90
2016,03,31,16,39,18.00
2016,03,31,16,40,18.10
2016,03,31,16,41,18.10
2016,03,31,16,42,18.10
2016,03,31,16,43,18.10
2016,03,31,16,44,18.10
2016,03,31,16,45,18.10
2016,03,31,16,46,18.10
2016,03,31,16,47,18.10
2016,03,31,16,48,18.00
2016,03,31,16,49,18.00
2016,03,31,16,50,17.90
2016,03,31,16,51,17.90
2016,03,31,16,52,17.90
2016,03,31,16,53,17.80
2016,03,31,16,54,17.80
2016,03,31,16,55,17.70
2016,03,31,16,56,17.70
2016,03,31,16,57,17.70
2016,03,31,16,58,17.70
2016,03,31,16,59,17.60
2016,03,31,17,00,17.60
2016,03,31,17,01,17.60
2016,03,31,17,02,17.60
2016,03,31,17,03,17.50
2016,03,31,17,04,17.50
2016,03,31,17,05,17.50
2016,03,31,17,06,17.40
2016,03,31,17,07,17.40
2016,03,31,17,08,17.40
2016,03,31,17,09,17.40
2016,03,31,17,10,17.40
2016,03,31,17,11,17.50
2016,03,31,17,12,17.50
2016,03,31,17,13,17.60
2016,03,31,17,14,17.60
2016,03,31,17,15,17.70
2016,03,31,17,16,17.80
2016,03,31,17,17,17.90
2016,03,31,17,18,17.90
2016,03,31,17,19,18.00
2016,03,31,17,20,18.20
2016,03,31,17,21,18.30
2016,03,31,17,22,18.50
2016,03,31,17,23,18.60
2016,03,31,17,24,18.70
2016,03,31,17,25,18.80
2016,03,31,17,26,18.80
2016,03,31,17,27,18.90
2016,03,31,17,28,18.90
2016,03,31,17,29,18.90
2016,03,31,17,30,18.90
2016,03,31,17,31,18.90
2016,03,31,17,32,18.90
2016,03,31,17,33,18.90
2016,03,31,17,34,18.90
2016,03,31,17,35,18.90
2016,03,31,17,36,18.90
2016,03,31,17,37,18.90
2016,03,31,17,38,18.80
2016,03,31,17,39,18.80
2016,03,31,17,40,18.70
2016,03,31,17,41,18.70
2016,03,31,17,42,18.70
2016,03,31,17,43,18.70